When you browse on this site, cookies collect data to enhance your experience and personalize the content and advertising you see.
Visit our Privacy Policy to learn more. By continuing to use the site, you agree to this use of cookies and data.
  • In Hungary
  • List of Countries
  • For 7 days
  • Water Temperature
  • Satellite Maps
  • Weather Map
  • News
  • Weather Widgets
  • user-avatar
    Login

    Hourly Weather Allen Park

    Today, 16 June, Sunday

    Time Temperature Precipitation Wind Pressure Humidity
    00:00 +17°C° 0 mm 4 mps 740 mmHg 83%
    01:00 +17°C° 0 mm 4 mps 740 mmHg 80%
    02:00 +16°C° 0 mm 3 mps 740 mmHg 77%
    03:00 +16°C° 0 mm 3 mps 740 mmHg 74%
    04:00 +16°C° 0.1 mm 3 mps 740 mmHg 73%
    05:00 +16°C° 0.1 mm 3 mps 741 mmHg 72%
    06:00 +16°C° 0.1 mm 3 mps 741 mmHg 71%
    07:00 +14°C° 2.6 mm 3 mps 741 mmHg 77%
    08:00 +14°C° 2.6 mm 3 mps 741 mmHg 84%
    09:00 +15°C° 2.6 mm 2 mps 742 mmHg 90%
    10:00 +16°C° 0.8 mm 2 mps 742 mmHg 89%
    11:00 +16°C° 0.8 mm 3 mps 742 mmHg 89%
    12:00 +17°C° 0.8 mm 3 mps 742 mmHg 89%
    13:00 +18°C° 0 mm 3 mps 742 mmHg 86%
    14:00 +18°C° 0 mm 3 mps 742 mmHg 83%
    15:00 +19°C° 0 mm 2 mps 742 mmHg 80%
    16:00 +18°C° 0 mm 3 mps 742 mmHg 81%
    17:00 +18°C° 0 mm 3 mps 742 mmHg 82%
    18:00 +17°C° 0 mm 3 mps 742 mmHg 83%
    19:00 +16°C° 0 mm 3 mps 742 mmHg 81%
    20:00 +16°C° 0 mm 3 mps 743 mmHg 79%
    21:00 +14°C° 0 mm 3 mps 743 mmHg 77%
    22:00 +14°C° 0 mm 3 mps 743 mmHg 75%
    23:00 +14°C° 0 mm 3 mps 743 mmHg 74%

    Tomorrow, 17 June, Monday

    Time Temperature Precipitation Wind Pressure Humidity
    00:00 +14°C° 0 mm 3 mps 743 mmHg 72%
    01:00 +14°C° 0 mm 3 mps 743 mmHg 74%
    02:00 +13°C° 0 mm 3 mps 743 mmHg 76%
    03:00 +13°C° 0 mm 3 mps 743 mmHg 78%
    04:00 +14°C° 0 mm 3 mps 744 mmHg 77%
    05:00 +14°C° 0 mm 3 mps 744 mmHg 77%
    06:00 +14°C° 0 mm 3 mps 744 mmHg 76%
    07:00 +16°C° 0 mm 3 mps 744 mmHg 75%
    08:00 +16°C° 0 mm 3 mps 744 mmHg 74%
    09:00 +17°C° 0 mm 3 mps 744 mmHg 73%
    10:00 +18°C° 0 mm 3 mps 744 mmHg 73%
    11:00 +18°C° 0 mm 2 mps 744 mmHg 72%
    12:00 +19°C° 0 mm 2 mps 744 mmHg 72%
    13:00 +20°C° 0 mm 2 mps 744 mmHg 70%
    14:00 +20°C° 0 mm 2 mps 744 mmHg 69%
    15:00 +21°C° 0 mm 2 mps 744 mmHg 67%
    16:00 +21°C° 0 mm 2 mps 744 mmHg 69%
    17:00 +21°C° 0 mm 2 mps 744 mmHg 71%
    18:00 +21°C° 0 mm 2 mps 744 mmHg 73%
    19:00 +19°C° 0 mm 2 mps 744 mmHg 73%
    20:00 +18°C° 0 mm 3 mps 744 mmHg 74%
    21:00 +17°C° 0 mm 3 mps 744 mmHg 75%
    22:00 +17°C° 0 mm 2 mps 744 mmHg 73%
    23:00 +16°C° 0 mm 2 mps 744 mmHg 71%

    Day after tomorrow, 18 June, Tuesday

    Time Temperature Precipitation Wind Pressure Humidity
    00:00 +16°C° 0 mm 2 mps 744 mmHg 69%
    01:00 +16°C° 0 mm 2 mps 744 mmHg 69%
    02:00 +16°C° 0 mm 2 mps 744 mmHg 69%
    03:00 +15°C° 0 mm 2 mps 744 mmHg 69%
    04:00 +16°C° 0 mm 2 mps 744 mmHg 69%
    05:00 +16°C° 0 mm 2 mps 744 mmHg 68%
    06:00 +17°C° 0 mm 3 mps 745 mmHg 67%
    07:00 +18°C° 0 mm 2 mps 745 mmHg 66%
    08:00 +19°C° 0 mm 2 mps 745 mmHg 65%
    09:00 +21°C° 0 mm 2 mps 745 mmHg 64%
    10:00 +23°C° 0 mm 2 mps 744 mmHg 62%
    11:00 +24°C° 0 mm 2 mps 744 mmHg 60%
    12:00 +25°C° 0 mm 1 mps 744 mmHg 59%
    13:00 +25°C° 0 mm 1 mps 744 mmHg 58%
    14:00 +26°C° 0 mm 2 mps 743 mmHg 58%
    15:00 +26°C° 0 mm 2 mps 743 mmHg 58%
    16:00 +25°C° 0 mm 2 mps 743 mmHg 63%
    17:00 +24°C° 0 mm 2 mps 743 mmHg 67%
    18:00 +21°C° 0 mm 3 mps 743 mmHg 71%
    19:00 +21°C° 0 mm 3 mps 742 mmHg 69%
    20:00 +20°C° 0 mm 3 mps 742 mmHg 66%
    21:00 +19°C° 0 mm 3 mps 742 mmHg 64%
    22:00 +18°C° 0 mm 2 mps 742 mmHg 62%
    23:00 +18°C° 0 mm 2 mps 742 mmHg 60%

    19 June, Wednesday

    Time Temperature Precipitation Wind Pressure Humidity
    00:00 +17°C° 0 mm 2 mps 741 mmHg 58%
    01:00 +17°C° 0 mm 2 mps 741 mmHg 59%
    02:00 +16°C° 0 mm 2 mps 741 mmHg 61%
    03:00 +16°C° 0 mm 2 mps 740 mmHg 62%
    04:00 +17°C° 0 mm 2 mps 740 mmHg 63%
    05:00 +17°C° 0 mm 3 mps 741 mmHg 64%
    06:00 +17°C° 0 mm 3 mps 741 mmHg 65%
    07:00 +19°C° 0 mm 3 mps 741 mmHg 62%
    08:00 +21°C° 0 mm 2 mps 741 mmHg 60%
    09:00 +23°C° 0 mm 2 mps 741 mmHg 57%
    10:00 +25°C° 0 mm 2 mps 741 mmHg 54%
    11:00 +26°C° 0 mm 1 mps 741 mmHg 51%
    12:00 +28°C° 0 mm 1 mps 741 mmHg 48%
    13:00 +28°C° 0 mm 2 mps 740 mmHg 50%
    14:00 +28°C° 0 mm 2 mps 740 mmHg 51%
    15:00 +27°C° 0 mm 3 mps 740 mmHg 53%
    16:00 +26°C° 0 mm 3 mps 740 mmHg 58%
    17:00 +25°C° 0 mm 2 mps 740 mmHg 64%
    18:00 +24°C° 0 mm 2 mps 740 mmHg 69%
    19:00 +23°C° 0 mm 2 mps 740 mmHg 70%
    20:00 +23°C° 0 mm 2 mps 740 mmHg 71%
    21:00 +21°C° 0 mm 2 mps 740 mmHg 72%
    22:00 +20°C° 0 mm 2 mps 739 mmHg 72%
    23:00 +20°C° 0 mm 3 mps 739 mmHg 71%

    20 June, Thursday

    Time Temperature Precipitation Wind Pressure Humidity
    00:00 +19°C° 0 mm 3 mps 738 mmHg 70%
    01:00 +19°C° 0 mm 3 mps 738 mmHg 72%
    02:00 +19°C° 0 mm 3 mps 738 mmHg 75%
    03:00 +19°C° 0 mm 3 mps 737 mmHg 77%
    04:00 +19°C° 1 mm 4 mps 737 mmHg 80%
    05:00 +18°C° 1 mm 4 mps 737 mmHg 83%
    06:00 +17°C° 1 mm 5 mps 737 mmHg 86%
    07:00 +17°C° 1.1 mm 5 mps 736 mmHg 88%
    08:00 +17°C° 1.1 mm 5 mps 736 mmHg 90%
    09:00 +17°C° 1.1 mm 5 mps 736 mmHg 92%
    10:00 +19°C° 0.3 mm 4 mps 736 mmHg 92%
    11:00 +19°C° 0.3 mm 3 mps 735 mmHg 92%
    12:00 +20°C° 0.3 mm 3 mps 735 mmHg 92%
    13:00 +22°C° 0.4 mm 3 mps 735 mmHg 86%
    14:00 +24°C° 0.4 mm 3 mps 734 mmHg 80%
    15:00 +26°C° 0.4 mm 4 mps 734 mmHg 74%
    16:00 +26°C° 0.5 mm 3 mps 734 mmHg 76%
    17:00 +25°C° 0.5 mm 3 mps 733 mmHg 77%
    18:00 +25°C° 0.5 mm 2 mps 733 mmHg 79%
    19:00 +24°C° 0.5 mm 2 mps 733 mmHg 82%
    20:00 +22°C° 0.5 mm 3 mps 734 mmHg 85%
    21:00 +21°C° 0.5 mm 3 mps 734 mmHg 88%
    22:00 +21°C° 0.2 mm 3 mps 734 mmHg 89%
    23:00 +20°C° 0.2 mm 3 mps 734 mmHg 91%

    21 June, Friday

    Time Temperature Precipitation Wind Pressure Humidity
    00:00 +20°C° 0.2 mm 4 mps 734 mmHg 92%
    01:00 +20°C° 0 mm 4 mps 734 mmHg 91%
    02:00 +19°C° 0 mm 4 mps 734 mmHg 90%
    03:00 +19°C° 0 mm 4 mps 734 mmHg 89%
    04:00 +19°C° 0 mm 4 mps 735 mmHg 87%
    05:00 +19°C° 0 mm 5 mps 736 mmHg 85%
    06:00 +17°C° 0 mm 5 mps 736 mmHg 84%
    07:00 +17°C° 0 mm 5 mps 737 mmHg 82%
    08:00 +17°C° 0 mm 6 mps 737 mmHg 80%
    09:00 +17°C° 0 mm 6 mps 738 mmHg 78%
    10:00 +19°C° 0 mm 6 mps 738 mmHg 75%
    11:00 +20°C° 0 mm 6 mps 739 mmHg 73%
    12:00 +20°C° 0 mm 6 mps 739 mmHg 70%
    13:00 +20°C° 0 mm 5 mps 740 mmHg 69%
    14:00 +20°C° 0 mm 5 mps 740 mmHg 68%
    15:00 +20°C° 0 mm 5 mps 741 mmHg 67%
    16:00 +20°C° 0 mm 4 mps 741 mmHg 68%
    17:00 +20°C° 0 mm 3 mps 741 mmHg 69%
    18:00 +20°C° 0 mm 3 mps 741 mmHg 70%
    19:00 +19°C° 0 mm 2 mps 741 mmHg 73%
    20:00 +18°C° 0 mm 2 mps 742 mmHg 75%
    21:00 +16°C° 0 mm 2 mps 742 mmHg 78%
    22:00 +16°C° 0 mm 2 mps 741 mmHg 79%
    23:00 +16°C° 0 mm 2 mps 741 mmHg 80%
    Show more